Location: Conjunto Santa Maria
(19.9513°S, 43.9599°W)
Time: 12:52:45
(UTC+00:00)

Cosmos 1943 Rocket - Pass Details

Date: 21 January 2021
Orbit: 810 x 845 km, 71.0° (Epoch: 04 March)

Event Time Altitude Azimuth Distance (km) Brightness Sun altitude
Rises 22:56:07 0° 203° (SSW) 3,349 6.2 -16.8°
Reaches altitude 10° 22:58:34 10° 206° (SSW) 2,410 5.4 -17.3°
Maximum altitude 23:04:00 61° 285° (WNW) 916 2.5 -18.4°
Enters shadow 23:08:30 15° 3° (N) 2,062 3.9 -19.4°
